Temperature
10 11 11 11 11 12 12 12 11 12 13 14 15 16 16 16 16 16 16 16 16 16 16 16 16 16 16 16 16 16 16 16 16 16 16 16 16 16
9 10 10 10 11 11 11 11 11 11 12 13 14 15 15 16 16 16 16 16 16 16 16 16 16 16 16 16 16 16 16 16 16 16 16 16 16 16
8 9 9 9 10 10 11 11 11 11 11 12 13 14 15 15 16 16 16 16 16 16 16 16 16 16 16 16 16 16 16 16 16 16 16 16 16 16
8 8 8 9 9 10 10 10 11 11 11 12 12 13 14 15 15 15 15 15 15 16 16 16 16 16 16 16 15 16 16 16 16 16 16 16 16 16
8 8 8 8 8 9 9 10 10 10 11 11 12 12 13 14 14 15 15 15 15 15 15 15 15 15 15 15 15 15 16 16 16 16 16 16 16 16
8 8 8 7 8 8 8 9 9 10 10 10 11 12 12 12 13 13 14 14 15 15 15 15 15 15 15 15 15 15 16 16 16 16 16 16 16 15
8 8 8 7 7 7 8 8 9 9 10 10 10 11 11 12 12 13 13 13 13 14 14 15 15 15 15 15 15 15 15 15 15 15 15 15 15 15
8 8 8 7 7 7 7 7 8 8 9 9 10 10 11 11 12 12 12 12 12 12 13 13 13 14 14 14 15 15 15 15 15 15 15 15 15 15
7 8 8 8 7 7 7 7 7 8 8 9 9 10 11 11 11 12 12 12 12 12 12 12 12 12 12 13 14 14 15 15 15 15 15 15 15 14
7 7 7 7 7 7 7 6 7 7 8 8 9 10 10 11 11 11 12 12 12 12 11 11 11 11 11 11 12 12 13 14 14 14 14 14 14 14
7 7 7 7 7 7 6 6 6 7 7 8 8 9 10 10 11 11 11 11 11 11 11 11 11 11 11 11 11 12 12 12 13 13 13 13 13 13
6 6 6 6 6 6 6 6 6 6 7 7 8 9 9 10 10 11 11 11 11 11 11 11 11 10 10 11 11 11 11 12 12 12 12 12 12 12
6 6 6 6 6 6 6 5 6 6 7 7 8 8 9 10 10 10 11 11 11 11 11 11 11 11 11 10 10 11 11 11 11 11 11 11 11 12
6 6 6 6 6 6 5 5 5 6 6 6 7 8 9 9 10 10 11 11 11 11 12 11 11 11 11 11 11 10 11 11 11 11 11 11 11 11
6 6 6 5 5 5 5 5 5 5 6 6 7 8 9 9 10 10 10 10 10 11 11 11 11 11 11 12 11 11 11 11 11 11 11 11 11 11
5 5 5 5 5 5 5 5 5 5 6 6 7 8 8 9 9 9 10 10 10 10 10 11 11 11 11 12 12 12 12 11 11 11 11 11 11 11
5 5 5 5 5 5 5 5 5 5 6 6 7 8 8 9 9 9 9 9 10 10 10 10 10 11 11 11 11 11 11 11 11 11 11 11 11 11
5 5 5 5 5 5 5 5 5 5 6 6 7 7 8 8 9 9 9 9 9 10 10 10 10 10 10 10 11 11 11 11 11 11 11 11 11 11
6 6 6 5 5 5 5 5 6 6 6 7 7 7 8 8 9 9 9 9 9 9 10 10 10 10 10 10 10 11 11 11 11 11 11 11 11 11
6 6 6 6 6 6 6 6 6 6 6 7 7 7 8 8 8 9 9 9 9 9 9 10 10 11 11 11 11 11 11 11 11 11 11 10 10 10
6 6 6 6 6 6 6 6 6 6 7 7 7 7 8 8 8 8 9 9 9 9 9 10 10 10 11 11 11 11 11 11 11 11 11 10 10 10
7 7 7 7 7 7 7 7 7 7 7 7 7 8 8 8 8 8 9 9 9 9 9 9 9 10 10 10 11 11 11 10 10 9 10 11 11 11
7 7 7 7 7 7 7 7 7 7 8 8 8 8 8 8 8 9 9 9 9 9 9 9 9 9 9 10 10 10 10 10 10 9 9 9 10 10
Wind_Speed
4 4 3 3 3 4 4 3 3 3 3 3 3 3 3 4 6 8 9 13 17 18 19 20 22 24 25 25 25 26 25 26 26 26 26 26 25 25
4 4 4 3 3 4 4 4 5 4 4 2 2 4 5 3 2 5 7 11 15 17 18 19 20 21 22 23 23 23 23 23 24 24 25 24 24 23
5 5 6 5 4 4 4 4 5 5 6 4 3 3 4 3 1 1 2 4 7 13 16 17 17 19 19 20 20 21 21 21 21 21 21 21 21 21
8 7 8 6 6 5 4 5 5 6 6 6 3 2 2 1 1 2 2 3 4 8 11 12 14 15 16 16 17 18 18 19 19 19 19 19 19 19
9 9 9 8 8 6 6 6 6 6 6 6 5 2 2 1 2 3 3 3 4 7 8 9 10 11 12 13 14 15 16 17 17 17 17 17 17 16
9 9 10 10 10 9 8 8 7 6 6 6 6 4 3 3 4 4 4 3 3 4 6 7 9 9 9 11 13 14 15 15 15 15 15 15 14 14
10 10 10 12 13 11 8 8 7 7 6 6 6 4 4 4 5 5 5 5 3 3 5 4 5 5 5 7 10 13 14 14 14 14 14 14 14 13
12 11 11 13 15 16 17 15 12 10 9 8 7 7 7 6 6 6 6 6 4 4 4 3 3 4 3 3 7 11 14 14 15 15 15 15 15 15
13 12 12 12 13 11 14 17 16 17 15 11 10 9 8 7 8 9 9 7 5 7 5 3 3 3 3 5 7 10 13 15 16 16 17 17 18 18
14 14 14 14 12 12 12 12 13 12 13 13 11 11 10 8 9 9 9 7 5 6 5 4 3 2 2 5 7 10 13 16 18 19 20 20 20 20
13 13 14 15 15 15 14 14 13 12 13 14 14 14 13 12 9 8 10 10 7 5 3 4 4 3 2 3 7 11 14 17 19 21 22 23 24 21
10 12 15 16 16 16 15 14 15 13 12 11 12 13 13 12 13 12 11 11 7 5 5 5 5 4 3 2 3 6 10 14 18 20 23 24 22 16
10 10 10 14 17 17 16 14 15 12 11 12 11 10 10 10 10 11 11 11 9 5 9 7 6 5 5 4 2 3 4 6 9 12 16 17 16 14
10 9 10 13 16 16 14 14 15 14 10 10 10 10 10 10 9 11 12 11 8 8 12 9 6 7 6 5 4 3 3 5 7 8 10 13 12 12
9 12 13 14 13 12 15 16 14 11 11 11 11 11 10 10 9 9 10 9 8 9 14 8 8 9 7 6 7 5 4 3 5 7 7 7 7 7
7 9 10 12 11 10 9 11 11 10 11 11 11 10 9 9 9 9 8 9 8 6 7 10 11 12 6 7 9 7 6 7 7 7 7 6 6 7
6 5 4 4 5 6 7 8 9 10 11 10 10 10 10 10 9 9 8 9 8 9 8 6 6 6 6 8 8 10 10 8 9 9 7 6 5 6
5 4 5 4 5 5 6 7 8 10 10 10 10 10 10 10 10 9 9 10 10 10 9 9 9 6 4 5 3 11 9 8 10 9 7 6 6 5
5 5 5 5 5 5 5 5 6 8 8 9 10 10 10 10 10 10 10 11 10 11 11 12 12 9 9 7 4 7 9 11 11 9 7 5 6 7
5 5 5 5 5 5 4 4 4 5 6 7 8 9 10 10 11 11 11 11 11 10 10 12 12 11 10 10 7 6 12 14 11 11 9 5 5 7
5 5 5 5 5 5 4 4 5 5 6 6 7 9 9 10 11 10 10 13 11 11 13 12 10 10 9 9 8 5 8 12 12 10 10 8 6 7
6 6 5 5 5 4 4 4 5 6 7 6 6 7 8 9 11 12 11 12 11 10 10 10 12 10 6 7 9 9 10 9 10 13 15 8 7 9
7 6 5 5 4 4 4 5 6 5 6 6 6 7 7 8 8 10 11 11 11 12 13 12 11 8 6 8 10 10 13 13 10 9 8 3 5 8
Wind_Direction
274 269 259 257 248 242 238 233 249 290 297 300 316 349 332 277 240 221 216 213 208 205 204 203 204 204 203 203 204 206 207 209 210 211 213 215 217 219
268 271 267 264 259 248 240 237 229 238 266 290 305 319 322 307 266 222 218 209 205 201 199 198 198 198 199 200 202 204 206 208 209 210 210 212 215 216
264 263 267 268 265 256 243 237 235 230 252 273 274 296 307 296 360 88 138 158 181 186 186 186 188 188 191 194 198 200 202 204 205 206 208 210 213 215
253 253 260 265 261 258 246 238 236 232 239 265 277 288 293 259 140 108 90 101 117 146 160 166 172 177 182 187 192 195 198 200 202 205 206 209 211 213
244 243 249 251 256 254 248 244 240 239 233 246 261 257 259 198 146 123 110 104 100 115 124 138 152 164 173 181 186 190 194 197 200 202 204 205 207 209
249 240 240 240 244 248 248 243 239 239 235 237 247 246 235 200 171 162 153 139 126 113 109 113 126 139 160 174 183 188 192 195 196 197 197 197 197 196
262 250 242 239 238 238 240 238 233 232 231 230 234 234 225 200 190 171 165 147 128 137 126 111 114 117 133 161 177 182 184 186 186 186 184 181 177 175
266 262 252 251 248 244 242 239 231 229 228 226 227 227 227 217 193 175 161 163 169 159 139 116 105 105 86 115 160 171 172 171 171 170 168 164 160 156
261 261 262 255 241 235 238 243 244 238 227 224 228 225 223 217 201 187 180 170 159 157 141 120 102 97 59 78 137 155 158 157 156 154 152 149 146 141
257 255 255 257 248 233 233 237 240 243 237 233 232 230 227 221 208 201 179 150 124 147 140 126 117 99 65 59 94 134 142 144 144 143 140 138 134 131
260 255 251 252 247 232 233 237 239 243 243 236 229 230 225 218 201 186 174 167 163 158 139 127 130 110 79 52 57 96 123 133 136 135 134 131 127 119
265 259 251 247 244 234 234 234 236 236 237 236 230 230 227 220 204 197 187 180 166 157 162 136 140 141 122 75 51 71 93 108 120 127 131 132 129 121
268 264 256 242 239 237 231 232 230 225 229 230 227 223 217 213 207 201 192 185 176 161 164 148 148 149 136 130 95 61 98 117 109 111 119 126 130 132
265 265 260 249 242 238 234 229 222 218 226 224 222 217 210 206 202 198 196 193 182 163 165 158 150 157 144 141 141 117 88 111 123 127 126 118 110 111
265 263 259 253 247 242 234 223 217 219 217 218 217 215 207 200 192 192 191 179 154 154 163 163 152 156 155 150 148 147 138 136 135 138 140 143 142 141
281 275 267 256 244 237 230 223 216 214 212 215 214 210 199 193 192 187 184 173 162 153 153 156 158 158 153 151 153 157 154 154 157 149 140 138 144 154
293 280 268 258 241 231 224 215 208 207 210 212 207 200 197 193 191 188 181 171 173 167 155 136 119 109 117 146 153 156 151 147 157 154 149 148 159 169
281 267 270 268 254 239 223 212 206 206 205 203 201 197 193 190 188 188 184 182 178 170 162 151 141 122 100 49 111 156 153 151 155 157 151 152 165 175
259 261 263 263 261 242 224 214 203 201 198 198 198 194 190 188 186 187 187 186 182 173 165 162 165 161 163 164 158 166 159 153 155 161 164 158 166 170
246 255 257 252 252 251 233 216 203 190 191 194 192 189 187 185 185 186 186 184 179 169 166 171 178 177 177 165 153 165 167 159 159 163 162 141 118 126
259 256 254 253 247 244 234 213 204 201 198 195 191 188 186 184 184 184 181 174 170 170 175 180 172 138 112 115 118 133 164 169 161 159 157 151 148 157
259 257 254 252 245 230 218 213 208 202 199 198 192 185 185 185 183 177 175 175 173 168 164 158 150 145 142 152 151 146 151 157 156 158 160 152 164 176
254 254 253 248 238 223 210 205 202 202 199 192 187 185 183 183 180 176 174 171 166 161 155 155 157 156 147 146 145 146 152 155 158 161 167 140 148 162
Height
1482 1483 1483 1484 1484 1484 1484 1484 1484 1482 1481 1481 1483 1483 1484 1486 1488 1490 1492 1495 1498 1502 1506 1510 1514 1518 1522 1526 1531 1535 1539 1544 1548 1551 1555 1559 1563 1566
1476 1476 1477 1478 1478 1479 1480 1480 1480 1480 1478 1478 1479 1480 1481 1482 1484 1486 1489 1491 1495 1498 1502 1506 1510 1514 1518 1522 1526 1530 1534 1538 1542 1546 1550 1554 1557 1560
1470 1470 1470 1471 1472 1473 1474 1475 1476 1476 1475 1474 1475 1476 1477 1479 1480 1482 1485 1488 1491 1495 1498 1502 1506 1510 1513 1517 1521 1525 1529 1533 1537 1541 1544 1548 1552 1555
1464 1464 1464 1464 1465 1466 1467 1468 1470 1471 1471 1470 1471 1472 1473 1475 1476 1479 1481 1484 1488 1491 1494 1498 1502 1506 1509 1513 1517 1520 1524 1528 1532 1535 1539 1543 1546 1550
1458 1457 1457 1458 1458 1459 1460 1461 1463 1465 1466 1466 1467 1468 1469 1471 1473 1475 1477 1481 1484 1487 1490 1494 1498 1501 1505 1508 1512 1516 1519 1523 1527 1531 1534 1538 1541 1544
1451 1451 1450 1450 1451 1452 1453 1454 1456 1458 1460 1461 1462 1464 1465 1467 1469 1471 1474 1476 1480 1483 1486 1489 1493 1496 1500 1504 1508 1511 1515 1519 1522 1526 1530 1533 1536 1540
1444 1444 1444 1443 1444 1445 1446 1447 1449 1451 1453 1455 1457 1459 1461 1462 1464 1467 1470 1473 1476 1479 1482 1485 1488 1492 1495 1499 1503 1507 1510 1514 1518 1522 1525 1529 1532 1535
1437 1436 1436 1436 1436 1437 1439 1440 1442 1444 1446 1448 1450 1453 1455 1458 1460 1462 1466 1469 1473 1475 1478 1481 1484 1487 1491 1494 1498 1502 1506 1510 1514 1518 1521 1525 1528 1531
1429 1429 1428 1429 1429 1429 1430 1432 1434 1436 1439 1441 1443 1446 1450 1453 1455 1457 1460 1464 1468 1471 1476 1478 1481 1484 1487 1491 1494 1498 1502 1506 1510 1513 1517 1521 1524 1528
1421 1421 1420 1420 1421 1421 1422 1423 1425 1428 1431 1433 1436 1440 1444 1447 1450 1452 1455 1459 1464 1468 1472 1475 1479 1482 1485 1489 1491 1494 1498 1502 1506 1510 1514 1518 1521 1524
1413 1412 1411 1411 1412 1413 1413 1414 1415 1418 1423 1426 1429 1433 1437 1441 1444 1447 1450 1454 1458 1462 1467 1471 1476 1479 1483 1486 1489 1493 1496 1500 1504 1507 1511 1515 1518 1522
1404 1403 1402 1402 1403 1404 1404 1404 1406 1409 1414 1418 1421 1425 1429 1434 1437 1440 1444 1447 1451 1456 1461 1467 1472 1476 1481 1484 1487 1490 1494 1498 1502 1505 1509 1513 1516 1520
1396 1394 1393 1393 1393 1394 1395 1396 1398 1403 1406 1410 1413 1417 1422 1426 1430 1434 1438 1442 1446 1450 1455 1461 1467 1472 1476 1480 1484 1488 1492 1496 1499 1503 1507 1511 1515 1519
1389 1387 1386 1385 1385 1386 1387 1388 1391 1395 1398 1401 1405 1409 1413 1418 1423 1428 1432 1437 1441 1446 1451 1456 1461 1466 1471 1475 1479 1484 1489 1493 1497 1501 1505 1509 1513 1516
1383 1381 1379 1378 1378 1378 1379 1381 1384 1387 1390 1393 1396 1401 1406 1412 1418 1422 1427 1432 1436 1441 1446 1452 1457 1463 1468 1471 1475 1480 1484 1489 1494 1499 1503 1507 1511 1515
1378 1375 1374 1372 1371 1371 1372 1374 1376 1379 1383 1386 1390 1396 1401 1406 1411 1416 1421 1425 1430 1435 1441 1447 1453 1459 1464 1468 1473 1477 1482 1486 1491 1496 1501 1505 1509 1513
1373 1371 1369 1367 1366 1365 1366 1368 1370 1373 1377 1381 1386 1390 1395 1400 1404 1410 1414 1419 1424 1429 1435 1441 1448 1454 1460 1465 1470 1474 1479 1483 1488 1493 1498 1502 1506 1510
1370 1367 1366 1364 1362 1361 1362 1363 1365 1368 1371 1375 1380 1384 1389 1394 1398 1404 1408 1414 1419 1424 1429 1435 1441 1448 1454 1460 1466 1470 1475 1480 1485 1490 1495 1500 1504 1508
1366 1364 1363 1361 1360 1359 1359 1360 1361 1364 1368 1371 1375 1380 1384 1389 1393 1398 1403 1409 1414 1419 1424 1430 1436 1442 1448 1454 1460 1466 1471 1476 1481 1487 1492 1498 1502 1507
1363 1362 1360 1359 1358 1357 1357 1358 1360 1362 1365 1368 1372 1376 1379 1384 1389 1393 1398 1403 1409 1414 1419 1425 1431 1437 1443 1448 1454 1461 1467 1473 1477 1483 1488 1495 1500 1505
1360 1359 1358 1357 1357 1356 1356 1357 1358 1360 1362 1365 1369 1372 1376 1380 1384 1389 1393 1399 1404 1409 1414 1420 1427 1434 1440 1447 1452 1457 1463 1469 1475 1480 1485 1490 1495 1499
1357 1356 1356 1355 1355 1355 1356 1356 1357 1359 1361 1363 1367 1370 1373 1377 1381 1385 1390 1395 1400 1405 1411 1417 1422 1429 1435 1441 1447 1453 1458 1464 1471 1478 1485 1489 1491 1495
1354 1353 1353 1353 1353 1354 1355 1355 1357 1358 1360 1362 1365 1368 1371 1375 1379 1383 1388 1392 1397 1402 1407 1413 1419 1425 1431 1437 1443 1448 1454 1460 1466 1472 1479 1485 1490 1496